[[{"header":{"parameterUnit":"m.s-1","parameterCategory":1,"la1":30.2991,"la2":30.254,"lo1":-89.0895,"lo2":-89.0444,"dy":0.0017,"dx":0.0017,"nx":28,"ny":28,"refTime":"2024-06-07T03:00:00:Z","depth":0,"parameterNumber":2,"parameterNumberName":"U-component_of_WINDS"},"data":[0,0,0,0,0,0,0,0,0,0,0,0,0,0,0,0,0,0,0,0,0,0,0,0,0,0,0,0,0,0,0,0,0,0,0,0,0,0,0,0,0,0,0,0,0,0,0,0,0,0,0,0,0,0,0,0,0,0,1.8624,1.8625,0,1.876,1.8762,1.8763,1.8768,1.8767,1.8765,1.8763,1.8907,1.8912,1.8917,0,0,0,0,0,0,0,0,0,0,0,0,0,1.8369,1.8373,1.8624,1.8625,1.8627,1.876,1.8762,1.8764,1.8769,1.8767,1.8765,1.8763,1.8905,1.8911,1.8918,0,0,0,0,0,0,0,0,0,0,0,0,0,1.849,1.8375,1.8623,1.8645,1.8649,1.876,1.8762,1.8764,1.8769,1.8766,1.8764,1.8762,1.8903,1.8911,1.8919,1.9018,0,0,1.8943,1.8947,0,0,0,0,0,0,0,0,1.8483,1.8499,1.864,1.8644,1.8648,1.8745,1.8725,1.8849,1.877,1.8723,1.8763,1.876,1.8855,1.8867,1.8898,1.9025,1.9031,1.8944,1.8949,1.8952,1.8954,0,0,0,0,0,0,0,1.8475,1.8493,1.8678,1.8642,1.8647,1.8649,1.8664,1.8748,1.8802,1.8727,1.8728,1.8744,1.8857,1.889,1.8901,1.9033,1.8944,1.8951,1.8956,1.8959,1.9246,1.9249,0,0,0,0,0,0,1.8462,1.8486,1.8673,1.8682,1.8558,1.8656,1.8672,1.8716,1.8801,1.8811,1.8746,1.8744,1.8878,1.8892,1.8906,1.9027,1.8952,1.896,1.8964,1.9243,1.9247,1.925,0,0,0,0,0,0,1.8456,1.8478,1.8668,1.8584,1.8609,1.8663,1.8712,1.872,1.8754,1.8815,1.8824,1.877,1.8876,1.8895,1.899,1.9032,1.8963,1.8971,1.924,1.9244,1.9248,1.9269,0,0,0,0,0,0,1.8449,1.8476,1.8514,1.8585,1.8613,1.8748,1.8715,1.8725,1.8767,1.8766,1.884,1.885,1.8876,1.8977,1.8997,1.9042,1.8977,1.9237,1.9242,1.9247,1.9265,1.9274,1.9281,0,0,0,0,0,1.844,1.8516,1.8516,1.8538,1.8661,1.8751,1.8767,1.8794,1.8771,1.8809,1.8848,1.8848,1.9024,1.8987,1.901,1.9057,1.9234,1.9241,1.9247,1.9261,1.9272,1.9281,0,0,0,0,0,0,1.8449,1.8525,1.8527,1.8628,1.8682,1.8751,1.8801,1.8804,1.8868,1.8863,1.8895,1.8912,1.9006,1.9041,1.8998,1.9157,1.9127,1.9138,1.913,1.9141,1.9148,1.9138,1.8984,0,0,0,0,0,1.8463,1.8528,1.8592,1.8675,1.8702,1.8747,1.8786,1.8802,1.8861,1.8884,1.893,1.8988,1.9056,1.9101,1.9167,1.927,1.9286,1.9314,1.9322,1.9328,1.9337,1.9393,1.9406,1.9271,1.9271,1.9271,0,0,1.8493,1.8542,1.8582,1.8678,1.8722,1.8789,1.8766,1.8839,1.8889,1.8896,1.8987,1.9023,1.9089,1.9188,1.9234,1.922,1.9378,1.9337,1.9341,1.9347,1.9401,1.9414,1.9425,1.9275,1.9274,1.9274,0,0,1.858,1.8624,1.8697,1.8742,1.8809,1.8838,1.8855,1.8924,1.8947,1.9039,1.9045,1.9106,1.9223,1.9269,1.9308,1.9412,1.9414,1.9433,1.9475,1.9529,1.954,1.9549,1.9585,1.9598,1.9442,1.9442,1.9442,0,1.8608,1.8709,1.8735,1.8807,1.8849,1.8857,1.8931,1.8974,1.9059,1.9088,1.9072,1.9218,1.9263,1.9372,1.9397,1.9429,1.945,1.9424,1.9536,1.9546,1.9555,1.959,1.9603,1.9444,1.9444,1.9444,1.9443,0,1.8739,1.8809,1.886,1.8941,1.8989,1.9062,1.9099,1.9145,1.9156,1.9187,1.928,1.9335,1.9411,1.9439,1.9452,1.955,1.9539,1.9529,1.9499,1.9569,1.9602,1.9616,1.9447,1.9446,1.9445,1.9445,0,0,1.8837,1.893,1.8948,1.8984,1.9058,1.9113,1.9186,1.926,1.9297,1.9356,1.9418,1.9517,1.9507,1.9551,1.957,1.9617,1.9694,1.9601,1.9603,1.9616,1.9804,1.981,1.9825,1.9696,1.9699,1.9701,1.9798,0,1.8931,1.906,1.9085,1.9197,1.9261,1.927,1.9333,1.9386,1.9417,1.9476,1.9511,1.9579,1.9562,1.9589,1.9636,1.9675,1.9732,1.9668,1.9754,1.9756,1.9735,1.9842,1.985,1.9938,1.9811,1.9813,1.9815,0,1.9058,1.9118,1.9236,1.93,1.9328,1.9384,1.9453,1.951,1.957,1.9589,1.9637,1.965,1.9726,1.9693,1.9799,1.9754,1.9791,1.9815,1.9819,1.9828,1.9789,1.9852,1.9968,1.998,1.9836,1.9834,1.9833,0,1.9115,1.9226,1.931,1.9341,1.9418,1.9457,1.9492,1.9549,1.9591,1.9652,1.9679,1.9749,1.9787,1.984,1.9871,1.9844,1.9974,1.9944,1.9992,1.9991,2.0018,2.0016,2.014,2.0044,2.0043,2.0043,2.0043,0,1.9217,1.9288,1.9336,1.9388,1.9468,1.9497,1.9576,1.961,1.9661,1.9719,1.9732,1.9787,1.9825,1.9886,1.9911,1.9994,2.0011,2.0029,2.0034,2.0027,2.0024,2.005,2.0045,2.0047,2.0046,2.0045,2.0045,0,1.9293,1.9329,1.9421,1.9486,1.9504,1.956,1.9616,1.9667,1.9698,1.9772,1.9791,1.9839,1.9911,1.9947,2.0038,2.0054,2.0147,2.015,2.0126,2.0128,2.0174,2.0168,2.0318,2.0338,2.023,2.0231,2.0232,0,1.9355,1.941,1.9481,1.952,1.9555,1.9619,1.9662,1.9693,1.9737,1.9808,1.985,1.9922,1.9981,2.0096,2.0139,2.0208,2.0211,2.0259,2.0222,2.0212,2.021,2.0206,2.0211,2.0265,2.0266,2.0267,2.0268,0,1.9461,1.9475,1.9536,1.9602,1.9653,1.9707,1.976,1.9792,1.9832,1.9881,1.9954,1.9999,2.009,2.0161,2.0233,2.0269,2.0275,2.0279,2.0294,2.0286,2.0269,2.0277,2.0143,2.0275,2.0275,2.0274,2.0274,2.0273,1.9531,1.958,1.9636,1.9703,1.9747,1.9796,1.9846,1.9883,1.9943,2.0019,2.0034,2.0111,2.0168,2.0265,2.0303,2.0364,2.0354,2.0375,2.038,2.0385,2.0386,2.0261,2.0377,2.0377,2.0377,2.0377,2.0377,0,1.9636,1.9673,1.9734,1.9807,1.986,1.986,1.9919,1.9963,2.003,2.0083,2.0141,2.0224,2.0293,2.0341,2.0411,2.045,2.0455,2.0468,2.0465,2.0473,2.0392,2.0371,2.0463,2.0463,2.0463,2.0463,2.0463,2.0463,1.9696,1.9778,1.9799,1.9902,1.9939,2.0013,2.0047,2.0092,2.0135,2.0226,2.0283,2.0314,2.0365,2.0439,2.0502,2.0515,2.0539,2.0552,2.0564,2.0488,2.0478,2.047,2.0451,2.0557,2.0557,2.064,2.0641,2.0641]},{"header":{"parameterUnit":"m.s-1","parameterCategory":1,"la1":30.2991,"la2":30.254,"lo1":-89.0895,"lo2":-89.0444,"dy":0.0017,"dx":0.0017,"nx":28,"ny":28,"refTime":"2024-06-07T03:00:00:Z","depth":0,"parameterNumber":3,"parameterNumberName":"V-component_of_WINDS"},"data":[0,0,0,0,0,0,0,0,0,0,0,0,0,0,0,0,0,0,0,0,0,0,0,0,0,0,0,0,0,0,0,0,0,0,0,0,0,0,0,0,0,0,0,0,0,0,0,0,0,0,0,0,0,0,0,0,0,0,3.1244,3.1244,0,3.1222,3.1222,3.1222,3.1165,3.1164,3.1163,3.1162,3.1137,3.1138,3.1138,0,0,0,0,0,0,0,0,0,0,0,0,0,3.1235,3.1235,3.1244,3.1244,3.1244,3.1222,3.1222,3.1222,3.1165,3.1164,3.1162,3.1161,3.1137,3.1138,3.1138,0,0,0,0,0,0,0,0,0,0,0,0,0,3.1228,3.1236,3.1244,3.1213,3.121,3.1222,3.1222,3.1221,3.1166,3.1164,3.1162,3.116,3.1137,3.1138,3.1138,3.1179,0,0,3.114,3.1141,0,0,0,0,0,0,0,0,3.1229,3.1229,3.1218,3.1215,3.1212,3.1195,3.121,3.1207,3.1166,3.1182,3.1161,3.1159,3.1158,3.1157,3.1156,3.1177,3.1176,3.1141,3.1141,3.1141,3.1141,0,0,0,0,0,0,0,3.1229,3.123,3.1235,3.1218,3.1214,3.1199,3.1196,3.1209,3.118,3.1181,3.1177,3.1175,3.1156,3.1156,3.1155,3.1176,3.1141,3.1141,3.1142,3.1142,3.1225,3.1227,0,0,0,0,0,0,3.1235,3.123,3.1236,3.1235,3.1216,3.1201,3.1198,3.1202,3.118,3.1175,3.1177,3.1172,3.1155,3.1155,3.1154,3.1197,3.1141,3.1142,3.1142,3.1223,3.1225,3.1227,0,0,0,0,0,0,3.1235,3.1236,3.1237,3.1231,3.123,3.1203,3.1208,3.1202,3.1202,3.1177,3.1171,3.1182,3.1154,3.1153,3.1172,3.1196,3.1142,3.1143,3.1221,3.1224,3.1226,3.1285,0,0,0,0,0,0,3.1235,3.1236,3.1252,3.1232,3.1231,3.1257,3.121,3.1203,3.1204,3.1198,3.118,3.1176,3.1153,3.1171,3.1173,3.1196,3.1143,3.1219,3.1222,3.1226,3.1281,3.1289,3.1297,0,0,0,0,0,3.1235,3.127,3.1253,3.1254,3.125,3.1258,3.1257,3.123,3.1206,3.1221,3.1204,3.1176,3.1193,3.1174,3.1175,3.1198,3.1217,3.1221,3.1225,3.1277,3.1288,3.1297,0,0,0,0,0,0,3.1293,3.1267,3.1248,3.1278,3.1271,3.1249,3.1267,3.1243,3.1242,3.1237,3.1203,3.1199,3.1222,3.1212,3.1191,3.1234,3.12,3.1205,3.124,3.1249,3.1257,3.1258,3.1144,0,0,0,0,0,3.131,3.1319,3.1295,3.1324,3.1321,3.1295,3.1297,3.1277,3.1268,3.1264,3.1249,3.124,3.1243,3.1246,3.1248,3.128,3.1273,3.1296,3.1304,3.131,3.1314,3.1327,3.1336,3.1241,3.1241,3.1241,0,0,3.1344,3.133,3.1338,3.1335,3.1327,3.1336,3.1293,3.1305,3.131,3.1266,3.1282,3.1271,3.1259,3.1283,3.1294,3.1276,3.1339,3.1316,3.1321,3.1321,3.1332,3.1341,3.1349,3.1243,3.1243,3.1242,0,0,3.141,3.1402,3.1423,3.1416,3.1404,3.1386,3.1391,3.1372,3.1362,3.1379,3.1344,3.135,3.1357,3.1349,3.1346,3.1407,3.138,3.1408,3.1449,3.1462,3.147,3.1476,3.1495,3.1503,3.1413,3.1413,3.1413,0,3.1453,3.1466,3.1437,3.1451,3.1449,3.1409,3.143,3.1424,3.1413,3.1412,3.1393,3.1399,3.1388,3.1409,3.1424,3.1424,3.1427,3.141,3.1471,3.1477,3.1483,3.1501,3.1508,3.1416,3.1416,3.1415,3.1415,0,3.1518,3.1528,3.1547,3.1536,3.1537,3.1554,3.1527,3.1531,3.151,3.1494,3.1509,3.1495,3.1491,3.1495,3.1476,3.1513,3.1502,3.1478,3.1442,3.1496,3.1512,3.1519,3.1421,3.142,3.1419,3.1418,0,0,3.1621,3.1594,3.1601,3.1594,3.1578,3.1584,3.1598,3.1595,3.1597,3.1591,3.1601,3.1606,3.1583,3.158,3.1559,3.1571,3.1616,3.1544,3.1543,3.1556,3.1653,3.167,3.1678,3.1599,3.16,3.1601,3.1653,0,3.168,3.1704,3.1677,3.1705,3.1712,3.1673,3.1685,3.1676,3.166,3.1663,3.1645,3.1649,3.1619,3.1617,3.1627,3.1608,3.1635,3.1605,3.1605,3.1606,3.1608,3.1687,3.1705,3.1755,3.1659,3.166,3.1661,0,3.1753,3.175,3.1778,3.1757,3.1759,3.1771,3.1764,3.1768,3.1755,3.1743,3.1738,3.1712,3.1723,3.169,3.1703,3.1683,3.1682,3.1673,3.1674,3.1672,3.1636,3.1684,3.177,3.1777,3.1671,3.167,3.167,0,3.1822,3.1824,3.184,3.1837,3.1814,3.1822,3.1813,3.1798,3.1797,3.1792,3.179,3.1786,3.1783,3.178,3.1753,3.1732,3.1768,3.1734,3.1756,3.1757,3.1764,3.1764,3.1849,3.1767,3.1767,3.1767,3.1767,0,3.189,3.1908,3.187,3.1881,3.1899,3.1868,3.1887,3.1874,3.1861,3.1867,3.1834,3.184,3.1805,3.1806,3.1786,3.1798,3.1797,3.1786,3.178,3.1788,3.1789,3.1786,3.1781,3.1769,3.1768,3.1768,3.1768,0,3.1969,3.1944,3.1959,3.1936,3.193,3.1945,3.1924,3.1931,3.1914,3.1921,3.1921,3.1893,3.1893,3.1866,3.1861,3.1846,3.1867,3.1855,3.1871,3.1866,3.189,3.1887,3.1974,3.1983,3.1897,3.1898,3.1899,0,3.2013,3.2026,3.2003,3.2005,3.1997,3.2,3.1998,3.1968,3.1967,3.1953,3.1962,3.1959,3.1955,3.1956,3.1934,3.1929,3.1916,3.1947,3.1915,3.1922,3.1914,3.1913,3.1913,3.1953,3.1954,3.1955,3.1956,0,3.2093,3.208,3.2079,3.2074,3.2073,3.2067,3.2059,3.2062,3.2029,3.2029,3.2029,3.2026,3.202,3.2016,3.2007,3.1996,3.197,3.1966,3.1971,3.1978,3.1986,3.198,3.1887,3.1964,3.1963,3.1963,3.1962,3.1962,3.2154,3.2162,3.2147,3.2147,3.2138,3.2131,3.2136,3.2119,3.2118,3.211,3.2092,3.2094,3.2079,3.2064,3.2055,3.2055,3.2039,3.2046,3.2048,3.205,3.2053,3.1987,3.2053,3.2053,3.2053,3.2052,3.2052,0,3.223,3.2218,3.2218,3.2208,3.2207,3.2183,3.2173,3.2173,3.2175,3.2164,3.216,3.2158,3.2155,3.2133,3.2126,3.213,3.2118,3.2129,3.2128,3.2125,3.2069,3.2064,3.2139,3.2139,3.2139,3.2139,3.2139,3.2139,3.2269,3.2282,3.2267,3.2274,3.2262,3.2264,3.2259,3.2252,3.2242,3.2242,3.2239,3.2224,3.2208,3.2199,3.2194,3.2188,3.2186,3.2201,3.219,3.2138,3.2129,3.2121,3.2117,3.2201,3.2201,3.2246,3.2247,3.2247]}]]